DMSP 5D-2 F13 DEB, 42286

Orbit data source: Space-Track

DMSP 5D-2 F13 DEB, 42286 is space debris in SSO originally from a launch on Fri, 24 Mar 1995 UTC launched from the Air Force Western Test Range (AFWTR). Debris objects in space refer to the collection of defunct objects orbiting the Earth. Examples of debris include non-operational satellites, rocket bodies, and fragments generated from explosions, collisions, or faulty payload assembly.

Loading next visibility...
Identifier
42286, 1995-015HC
Orbit
SSO
Country
Flag of USUS
Related business
Manufacturer
Unknown
Mission
Spacecraft
Bus & Motor
Unknown
Mass
Unknown
Launch date (UTC)
1995-03-24 (31 years ago)
Launch vehicle
Unknown
Launch site
Air Force Western Test Range (AFWTR)
Object type
Payload
Rocket body
Debris
Shape & HBR
Unknown shape, 0.1 m
Radar Cross Section
Small (<0.1 m²)

Expand to show TLE details & history
Last TLE update: 6 days ago

TLE from 6 days ago
0 DMSP 5D-2 F13 DEB
1 42286U 95015HC  25312.73902031  .00008261  00000-0  36308-2 0  9999
2 42286  98.9216 282.5804 0055640 350.9470   9.0699 14.22933594539402
Epoch: 2025-11-08T17:44Z
TLE epoch observation values (Epoch: 2025-11-08T17:44:11.354Z)
Latitude
-0.00007°
Longitude
-31.63121°
Altitude
778.833 km
Speed
7.485 km/s
True Right ascension
18h 50m 19s
True Declination
0° 00' 00"
Sunlit
Object was in daylight at epoch
Visualization orbit readout
Latitude
Unknown
Longitude
Unknown
Altitude
Unknown
Speed
Unknown
Apparent Right ascension
Unknown
Apparent Declination
Unknown
Sunlit
N/A
Visualization observer readout
Local Sidereal Time
20:13:13
Azimuth
Unknown
Elevation
Unknown
Doppler factor
Unknown
Orbital elements
Apogee altitude
852.623 km
Perigee altitude
772.604 km
Semi-major axis
7,190.75 km
Eccentricity
0.00556
Inclination
98.9216°
RAAN
282.5804°
Arg. of periapsis
350.947°
True anomaly
9.1711°
Mean anomaly
9.0699°
Eccentric anomaly
9.12043°
Mean motion
3.55944 °/min
Orbital period
101.14 mins
BSTAR
0.0036308

Documentation

Showing up to 5 results
|